STARLINK-34847, 65211

Orbit data source: Space-Track

STARLINK-34847, 65211 is a payload satellite owned by SpaceX/Seattle (US) in LEO that was launched on Thu, 14 Aug 2025 UTC via an FALCON 9 launch vehicle from the Air Force Eastern Test Range (AFETR). Payload-class satellites include a variety of spacecraft equipped with specific instruments for various scientific and technological missions. These include communications satellites like Starlink; space stations such as the ISS; scientific satellites like the Hubble; Earth observation satellites from companies like Planet Labs, Umbra, and HawkEye 360; GPS; miniature CubeSats for education and research; and military/defense satellites.

Loading next visibility...
Identifier
65211, 2025-176P
Orbit
LEO
Country
Flag of USUS
Related business
Manufacturer
SpaceX/Seattle
Mission
Operational Commercial Communications
Bus & Motor
STARLINK V2MO, Unknown motor
Mass
575 kg wet, ~530 kg dry
Launch date (UTC)
2025-08-14 (10 months ago)
Launch vehicle
FALCON 9
Launch site
Air Force Eastern Test Range (AFETR)
Object type
Payload
Rocket body
Debris
Shape & HBR
Box + 2 Pan, 17.7 m
Radar Cross Section
36.964 m², Large (>1 m²)

Expand to show TLE details & history
Last TLE update: 16 hours ago

TLE from 16 hours ago
0 STARLINK-34847
1 65211U 25176P   26171.32151811  .00011507  00000-0  39989-3 0  9990
2 65211  53.1592  36.0269 0001355  96.5648 263.5507 15.30212205 48832
Epoch: 2026-06-20T07:42Z
TLE epoch observation values (Epoch: 2026-06-20T07:42:59.164Z)
Latitude
-0.00004°
Longitude
11.74254°
Altitude
476.183 km
Speed
7.629 km/s
True Right ascension
02h 24m 06s
True Declination
0° 00' 00"
Sunlit
Object was in daylight at epoch
Visualization orbit readout
Latitude
Unknown
Longitude
Unknown
Altitude
Unknown
Speed
Unknown
Apparent Right ascension
Unknown
Apparent Declination
Unknown
Sunlit
N/A
Visualization observer readout
Local Sidereal Time
10:18:36
Azimuth
Unknown
Elevation
Unknown
Doppler factor
Unknown
Orbital elements
Apogee altitude
476.364 km
Perigee altitude
474.507 km
Semi-major axis
6,853.572 km
Eccentricity
0.00014
Inclination
53.1592°
RAAN
36.0269°
Arg. of periapsis
96.5648°
True anomaly
263.53527°
Mean anomaly
263.5507°
Eccentric anomaly
263.54299°
Mean motion
3.82532 °/min
Orbital period
94.11 mins
BSTAR
0.00039989
Loading maneuver chart data...
Computing Atmospheric mass density...
Loading historical data...
Loading historical data...
Loading historical data...
Loading historical data...
Loading historical data...
Loading historical data...
Loading historical data...

Documentation

Showing up to 5 results
|